1504803600.36,17712,16.19,73458.3,-2.89,-6.39,-5.35,0,*5E
1504803601.58,17713,16.19,73446.0,-2.89,-6.39,-5.51,0,*5D
1504803602.85,17714,16.19,73450.5,-2.89,-6.27,-5.65,0,*52
1504803604.08,17715,16.19,73454.8,-2.87,-6.09,-5.85,0,*5F
1504803605.3,17716,16.19,73454.3,-2.89,-6.09,-6.01,0,*5D
1504803606.55,17717,16.19,73444.3,-2.89,-6.23,-6.43,0,*52
1504803607.74,17718,16.19,73448.3,-2.87,-6.13,-6.69,0,*58
1504803608.98,17719,16.19,73454.8,-2.87,-6.23,-7.05,0,*51
1504803610.18,17720,16.19,73456.0,-2.87,-6.39,-7.49,0,*58
1504803611.42,17721,16.19,73450.8,-2.89,-6.77,-8.03,0,*5C
1504803612.63,17722,16.19,73450.5,-2.87,-7.19,-8.93,0,*51
1504803613.85,17723,16.19,73454.5,-2.87,-7.57,-9.19,0,*59
1504803615.1,17724,16.19,73454.3,-2.87,-7.91,-9.45,0,*5D
1504803616.32,17725,16.19,73462.0,-2.87,-8.29,-9.45,0,*50
1504803617.55,17726,16.19,73458.8,-2.87,-8.55,-9.45,0,*58
1504803618.76,17727,16.19,73458.8,-2.87,-9.05,-9.93,0,*56
1504803620.01,17728,16.19,73464.8,-2.89,-9.37,-10.05,0,*61
1504803621.23,17729,16.19,73462.8,-2.87,-10.01,-10.19,0,*5E
1504803622.43,17730,16.19,73458.8,-2.87,-10.53,-10.53,0,*5F
1504803623.67,17731,16.19,73462.3,-2.87,-11.29,-10.53,0,*52
1504803624.96,17732,16.19,73456.8,-2.89,-12.07,-10.41,0,*53
1504803626.22,17733,16.19,73464.5,-2.89,-12.65,-9.93,0,*61
1504803627.44,17734,16.19,73466.0,-2.87,-12.79,-9.19,0,*67
1504803628.67,17735,16.19,73466.8,-2.87,-12.71,-8.85,0,*6A
1504803629.89,17736,16.19,73470.3,-2.89,-12.39,-8.67,0,*67
1504803631.12,17737,16.19,73468.5,-2.87,-11.73,-8.93,0,*6E
1504803632.34,17738,16.19,73468.8,-2.87,-11.37,-9.31,0,*68
1504803633.55,17739,16.19,73474.3,-2.87,-11.11,-10.01,0,*56
1504803634.76,17740,16.19,73472.0,-2.87,-11.11,-10.57,0,*5B
1504803636.02,17741,16.19,73474.5,-2.87,-11.37,-11.29,0,*56
1504803637.31,17742,16.19,73470.0,-2.89,-12.07,-11.73,0,*54
1504803638.56,17743,16.19,73470.5,-2.87,-12.57,-11.73,0,*5E
1504803639.8,17744,16.19,73470.3,-2.89,-13.23,-11.15,0,*55
1504803641.02,17745,16.19,73476.5,-2.87,-13.51,-10.19,0,*52
1504803642.25,17746,16.19,73480.0,-2.89,-13.43,-9.23,0,*6D
1504803643.49,17747,16.19,73476.3,-2.89,-13.37,-8.67,0,*6E
1504803644.74,17748,16.19,73462.8,-2.89,-12.97,-7.91,0,*6C
1504803646.0,17749,16.19,73468.8,-2.89,-12.29,-7.35,0,*66
1504803647.28,17750,16.19,73466.3,-2.89,-11.55,-7.01,0,*61
1504803648.53,17751,16.19,73460.8,-2.89,-10.75,-6.89,0,*62
1504803649.76,17752,16.19,73466.0,-2.89,-10.15,-6.81,0,*6F
1504803650.96,17753,16.19,73456.5,-2.95,-9.79,-6.69,0,*57
1504803652.17,17754,16.19,73448.0,-2.91,-9.27,-6.31,0,*52
1504803653.37,17755,16.19,73442.3,-2.95,-8.89,-6.01,0,*51
1504803654.6,17756,16.19,73460.3,-2.95,-8.55,-5.81,0,*58
1504803655.82,17757,16.19,73466.0,-2.95,-8.21,-5.65,0,*50
1504803657.02,17758,16.19,73456.5,-2.91,-7.87,-5.43,0,*5C
1504803658.26,17759,16.19,73464.8,-2.91,-7.23,-5.23,0,*55
1504803659.49,17760,16.19,73470.3,-2.91,-6.73,-5.03,0,*59
1504803660.72,17761,16.19,73474.3,-2.91,-6.55,-5.03,0,*5C
1504803661.98,17762,16.19,73470.8,-2.89,-6.31,-5.07,0,*50
1504803663.17,17763,16.19,73458.8,-2.95,-6.13,-4.99,0,*5A
1504803664.37,17764,16.19,73452.0,-2.95,-6.05,-4.99,0,*5A
1504803665.62,17765,16.19,73454.0,-2.91,-5.69,-4.85,0,*5B
1504803666.88,17766,16.19,73448.0,-2.91,-5.65,-4.73,0,*5D
1504803668.11,17767,16.19,73454.3,-2.91,-5.55,-4.77,0,*5B
1504803669.36,17768,16.19,73458.3,-2.89,-5.31,-4.57,0,*5D
1504803670.61,17769,16.19,73458.5,-2.89,-5.19,-4.53,0,*52
1504803671.83,17770,16.19,73462.0,-2.87,-5.11,-4.45,0,*5B
1504803673.05,17771,16.19,73466.3,-2.89,-4.99,-4.57,0,*56
1504803674.24,17772,16.19,73470.3,-2.87,-4.99,-4.57,0,*5B
1504803675.48,17773,16.19,73472.3,-2.89,-4.93,-4.61,0,*5B
1504803676.73,17774,16.19,73476.0,-2.89,-4.99,-4.81,0,*58
1504803678.0,17775,16.19,73468.5,-2.89,-5.11,-4.85,0,*5C
1504803679.21,17776,16.19,73468.0,-2.87,-4.99,-4.73,0,*59
1504803680.49,17777,16.19,73466.5,-2.89,-5.11,-4.81,0,*5A
1504803681.73,17778,16.19,73470.5,-2.87,-5.19,-4.93,0,*50
1504803682.95,17779,16.19,73472.3,-2.89,-5.35,-4.99,0,*5B
1504803684.21,17780,16.19,73474.8,-2.89,-5.47,-5.07,0,*5E
1504803685.43,17781,16.19,73468.8,-2.89,-5.51,-4.99,0,*5E
1504803686.66,17782,16.19,73470.8,-2.87,-5.47,-4.81,0,*5D
1504803687.88,17783,16.19,73468.8,-2.91,-5.43,-4.85,0,*5B
1504803689.13,17784,16.19,73474.5,-2.89,-5.35,-4.81,0,*50
1504803690.38,17785,16.19,73472.0,-2.89,-5.39,-4.85,0,*59
1504803691.63,17786,16.19,73474.5,-2.89,-5.35,-4.73,0,*5F
1504803692.87,17787,16.19,73470.3,-2.89,-5.35,-4.85,0,*57
1504803694.13,17788,16.19,73468.5,-2.91,-5.31,-4.85,0,*55
1504803695.38,17789,16.19,73468.8,-2.91,-5.11,-4.73,0,*5F
1504803696.6,17790,16.19,73464.8,-2.91,-4.99,-4.73,0,*56
1504803697.87,17791,16.19,73460.8,-2.89,-4.85,-4.81,0,*5E
1504803699.13,17792,16.19,73464.3,-2.89,-4.81,-4.69,0,*5F
1504803700.4,17793,16.19,73462.0,-2.89,-4.69,-4.85,0,*5A
1504803701.64,17794,16.19,73462.0,-2.89,-4.81,-4.99,0,*56
1504803702.88,17795,16.19,73460.8,-2.87,-4.85,-5.19,0,*54
1504803704.13,17796,16.19,73462.0,-2.89,-4.99,-5.23,0,*5D
1504803705.38,17797,16.19,73460.0,-2.89,-4.99,-5.31,0,*5F
1504803706.62,17798,16.19,73466.8,-2.89,-5.19,-5.47,0,*58
1504803707.9,17799,16.19,73468.8,-2.89,-5.19,-5.31,0,*58
1504803709.13,17800,16.19,73468.8,-2.87,-5.23,-5.35,0,*54
1504803710.35,17801,16.19,73468.5,-2.87,-5.35,-5.31,0,*56
1504803711.61,17802,16.19,73468.3,-2.89,-5.47,-5.31,0,*5E
1504803712.86,17803,16.19,73470.0,-2.87,-5.61,-5.31,0,*55
1504803714.11,17804,16.19,73470.8,-2.87,-5.65,-5.19,0,*5C
1504803715.33,17805,16.19,73474.8,-2.87,-5.61,-4.99,0,*50
1504803716.58,17806,16.19,73476.8,-2.87,-5.61,-4.81,0,*5A
1504803717.83,17807,16.19,73474.0,-2.87,-5.73,-4.85,0,*5C
1504803719.05,17808,16.19,73480.3,-2.87,-5.47,-4.73,0,*5D
1504803720.3,17809,16.19,73476.5,-2.87,-5.65,-4.93,0,*52
1504803721.53,17810,16.19,73482.5,-2.87,-5.39,-4.69,0,*56
1504803722.75,17811,16.19,73484.0,-2.87,-5.35,-4.69,0,*5B
1504803723.98,17812,16.19,73482.0,-2.87,-5.23,-4.61,0,*57
1504803725.21,17813,16.19,73480.3,-2.87,-5.19,-4.61,0,*5F
1504803726.46,17814,16.19,73482.3,-2.85,-5.03,-4.53,0,*50
1504803727.69,17815,16.19,73482.8,-2.83,-5.03,-4.57,0,*53
1504803728.93,17816,16.19,73482.3,-2.85,-4.93,-4.65,0,*5F
1504803730.18,17817,16.19,73482.0,-2.85,-4.93,-4.65,0,*5E
1504803731.43,17818,16.19,73480.0,-2.85,-4.89,-4.57,0,*5B
1504803732.65,17819,16.19,73480.5,-2.83,-4.89,-4.57,0,*5C
1504803733.93,17820,16.19,73482.8,-2.85,-4.81,-4.69,0,*55
1504803735.17,17821,16.19,73484.0,-2.85,-4.77,-4.65,0,*51
1504803736.41,17822,16.19,73482.8,-2.85,-4.69,-4.65,0,*5D
1504803737.66,17823,16.19,73478.5,-2.85,-4.69,-4.65,0,*5C
1504803738.93,17824,16.19,73474.8,-2.85,-4.69,-4.69,0,*57
1504803740.2,17825,16.19,73478.5,-2.85,-4.69,-4.81,0,*50
1504803741.46,17826,16.19,73478.8,-2.85,-4.69,-4.77,0,*5A
1504803742.7,17827,16.19,73476.5,-2.83,-4.69,-4.81,0,*54
1504803743.97,17828,16.19,73474.8,-2.85,-4.69,-4.81,0,*5D
1504803745.21,17829,16.19,73478.8,-2.83,-4.77,-4.89,0,*5D
1504803746.45,17830,16.19,73472.5,-2.83,-4.89,-4.93,0,*5F
1504803747.69,17831,16.19,73466.3,-2.83,-4.93,-4.93,0,*55
1504803748.96,17832,16.19,73464.3,-2.85,-4.93,-4.93,0,*50
1504803750.23,17833,16.19,73468.8,-2.85,-5.07,-4.93,0,*5D
1504803751.48,17834,16.19,73470.5,-2.83,-5.07,-4.93,0,*5C
1504803752.76,17835,16.19,73470.5,-2.85,-5.03,-4.89,0,*54
1504803754.04,17836,16.19,73470.8,-2.85,-5.03,-4.93,0,*5C
1504803755.29,17837,16.19,73466.5,-2.83,-5.07,-4.93,0,*5F
1504803756.53,17838,16.19,73466.8,-2.83,-5.03,-4.93,0,*54
1504803757.81,17839,16.19,73466.3,-2.85,-5.07,-4.89,0,*5C
1504803759.06,17840,16.19,73468.8,-2.83,-5.07,-4.89,0,*54
1504803760.33,17841,16.19,73464.3,-2.81,-5.03,-4.77,0,*52
1504803761.6,17842,16.19,73466.8,-2.81,-5.03,-4.77,0,*51
1504803762.86,17843,16.19,73468.0,-2.83,-5.15,-5.03,0,*57
1504803764.11,17844,16.19,73468.3,-2.83,-5.15,-4.89,0,*53
1504803765.36,17845,16.19,73464.3,-2.83,-5.07,-5.03,0,*52
1504803766.62,17846,16.19,73468.5,-2.83,-5.07,-5.07,0,*55
1504803767.87,17847,16.19,73468.8,-2.83,-5.15,-5.15,0,*54
1504803769.11,17848,16.19,73468.8,-2.83,-5.19,-5.19,0,*5B
1504803770.34,17849,16.19,73468.3,-2.83,-5.27,-5.35,0,*59
1504803771.58,17850,16.19,73470.5,-2.81,-5.23,-5.51,0,*55
1504803772.84,17851,16.19,73470.8,-2.81,-5.31,-5.55,0,*53
1504803774.09,17852,16.19,73470.8,-2.81,-5.51,-5.85,0,*5B
1504803775.36,17853,16.19,73470.8,-2.81,-5.65,-5.93,0,*5A
1504803776.63,17854,16.19,73472.0,-2.81,-5.89,-5.93,0,*5F
1504803777.84,17855,16.19,73470.3,-2.81,-6.13,-6.05,0,*52
1504803779.1,17856,16.19,73470.8,-2.81,-6.35,-6.19,0,*58
1504803780.34,17857,16.19,73470.8,-2.81,-6.59,-6.19,0,*53
1504803781.56,17858,16.19,73468.5,-2.81,-6.73,-6.05,0,*59
1504803782.8,17859,16.19,73478.0,-2.81,-6.85,-5.93,0,*5D
1504803784.07,17860,16.19,73478.5,-2.81,-6.97,-5.77,0,*5E
1504803785.34,17861,16.19,73476.3,-2.81,-6.93,-5.69,0,*54
1504803786.56,17862,16.19,73478.8,-2.81,-6.85,-5.43,0,*58
1504803787.81,17863,16.19,73482.0,-2.81,-6.73,-5.23,0,*56
1504803789.06,17864,16.19,73482.8,-2.81,-6.43,-5.15,0,*57
1504803790.27,17865,16.19,73480.5,-2.81,-6.13,-4.99,0,*56
1504803791.52,17866,16.19,73478.5,-2.81,-5.93,-4.99,0,*5E
1504803792.8,17867,16.13,73474.0,-2.81,-5.81,-5.03,0,*5E
1504803794.07,17868,16.19,73474.8,-2.81,-5.69,-5.15,0,*50
1504803795.32,17869,16.19,73468.8,-2.83,-5.69,-5.19,0,*5F
1504803796.59,17870,16.19,73470.3,-2.81,-5.65,-5.15,0,*55
1504803797.84,17871,16.19,73472.8,-2.81,-5.55,-5.15,0,*57
1504803799.1,17872,16.13,73470.5,-2.85,-5.55,-5.19,0,*5C
1504803800.33,17873,16.19,73474.0,-2.83,-5.55,-5.15,0,*57
1504803801.55,17874,16.19,73468.8,-2.83,-5.43,-5.03,0,*50
1504803802.78,17875,16.19,73466.3,-2.83,-5.43,-5.07,0,*55
1504803804.03,17876,16.19,73470.3,-2.85,-5.43,-5.03,0,*54
1504803805.28,17877,16.19,73470.8,-2.85,-5.35,-4.93,0,*5C
1504803806.5,17878,16.19,73464.3,-2.83,-5.35,-4.93,0,*55
1504803807.74,17879,16.19,73468.3,-2.83,-5.27,-4.89,0,*5C
1504803808.99,17880,16.19,73464.3,-2.83,-5.31,-4.89,0,*5D
1504803810.24,17881,16.13,73460.0,-2.83,-5.27,-4.93,0,*50
1504803811.51,17882,16.19,73466.8,-2.85,-5.27,-4.93,0,*55
1504803812.79,17883,16.19,73466.0,-2.85,-5.15,-4.93,0,*55
1504803814.07,17884,16.19,73464.5,-2.85,-5.19,-4.89,0,*55
1504803815.34,17885,16.19,73468.0,-2.85,-5.19,-4.93,0,*5F
1504803816.61,17886,16.13,73468.3,-2.85,-5.27,-4.77,0,*5B
1504803817.86,17887,16.13,73466.0,-2.83,-5.15,-4.69,0,*52
1504803819.11,17888,16.19,73470.3,-2.83,-5.07,-4.69,0,*5E
1504803820.36,17889,16.19,73470.8,-2.83,-5.15,-4.69,0,*5C
1504803821.64,17890,16.19,73470.8,-2.85,-5.27,-4.93,0,*56
1504803822.88,17891,16.13,73468.8,-2.83,-5.27,-4.89,0,*5A
1504803824.16,17892,16.13,73470.3,-2.85,-5.27,-4.93,0,*54
1504803825.44,17893,16.19,73466.8,-2.85,-5.31,-5.03,0,*5A
1504803826.72,17894,16.19,73474.3,-2.85,-5.27,-5.03,0,*5A
1504803828.0,17895,16.13,73474.5,-2.85,-5.27,-4.93,0,*53
1504803829.24,17896,16.19,73468.3,-2.83,-5.27,-4.93,0,*56
1504803830.52,17897,16.13,73464.0,-2.85,-5.31,-4.89,0,*5D
1504803831.8,17898,16.13,73462.8,-2.85,-5.31,-4.93,0,*59
1504803833.06,17899,16.13,73458.8,-2.85,-5.55,-5.03,0,*52
1504803834.32,17900,16.13,73458.5,-2.85,-5.47,-5.03,0,*50
1504803835.57,17901,16.19,73466.3,-2.85,-5.43,-4.81,0,*5E
1504803836.84,17902,16.19,73460.8,-2.89,-5.31,-4.81,0,*54
1504803838.09,17903,16.19,73460.0,-2.87,-5.11,-4.69,0,*5F
1504803839.34,17904,16.19,73456.5,-2.87,-5.11,-4.73,0,*53
1504803840.59,17905,16.19,73458.3,-2.87,-5.07,-4.85,0,*5C
1504803841.81,17906,16.19,73458.5,-2.87,-5.11,-4.99,0,*55
1504803843.03,17907,16.13,73462.5,-2.87,-5.11,-4.99,0,*54
1504803844.27,17908,16.19,73466.5,-2.89,-4.99,-5.11,0,*55
1504803845.54,17909,16.13,73458.3,-2.89,-4.93,-5.11,0,*5E
1504803846.79,17910,16.19,73458.8,-2.87,-4.85,-5.23,0,*5E
1504803848.01,17911,16.19,73458.3,-2.87,-5.11,-5.35,0,*54
1504803849.23,17912,16.19,73464.8,-2.87,-5.11,-5.39,0,*5B
1504803850.45,17913,16.13,73458.5,-2.87,-5.39,-5.77,0,*5A
1504803851.7,17914,16.19,73458.3,-2.87,-5.73,-5.85,0,*5E
1504803852.97,17915,16.13,73458.8,-2.89,-5.89,-5.65,0,*5A
1504803854.22,17916,16.19,73458.8,-2.89,-5.97,-5.61,0,*52
1504803855.45,17917,16.13,73458.0,-2.87,-5.89,-5.47,0,*56
1504803856.67,17918,16.13,73456.3,-2.89,-5.97,-5.47,0,*58
1504803857.89,17919,16.19,73462.0,-2.87,-6.09,-5.73,0,*54
1504803859.16,17920,16.19,73456.5,-2.89,-6.23,-5.77,0,*5C
1504803860.39,17921,16.19,73454.0,-2.87,-6.43,-5.85,0,*58
1504803861.62,17922,16.13,73456.3,-2.87,-6.77,-5.77,0,*51
1504803862.87,17923,16.19,73458.8,-2.89,-6.81,-5.65,0,*54
1504803864.09,17924,16.19,73462.3,-2.89,-6.55,-5.35,0,*5F
1504803865.33,17925,16.19,73464.0,-2.89,-6.63,-5.35,0,*5B
1504803866.58,17926,16.13,73466.5,-2.89,-6.39,-5.31,0,*53
1504803867.83,17927,16.13,73464.8,-2.89,-6.01,-5.31,0,*59
1504803869.08,17928,16.13,73464.5,-2.87,-5.89,-5.11,0,*59
1504803870.36,17929,16.13,73460.0,-2.89,-5.77,-5.11,0,*57
1504803871.58,17930,16.19,73458.3,-2.87,-5.65,-4.99,0,*53
1504803872.85,17931,16.13,73452.8,-2.89,-5.73,-5.07,0,*5D
1504803874.11,17932,16.13,73442.8,-2.91,-5.69,-5.11,0,*5B
1504803875.33,17933,16.13,73450.5,-2.89,-5.51,-4.99,0,*59
1504803876.55,17934,16.19,73442.0,-2.89,-5.51,-4.99,0,*5E
1504803877.83,17935,16.13,73434.3,-2.89,-5.61,-5.11,0,*5D
1504803879.08,17936,16.13,73430.0,-2.89,-5.47,-5.11,0,*5A
1504803880.33,17937,16.13,73432.5,-2.89,-5.47,-5.23,0,*5A
1504803881.59,17938,16.13,73436.3,-2.89,-5.47,-5.31,0,*56
1504803882.78,17939,16.13,73440.5,-2.87,-5.39,-5.35,0,*54
1504803884.04,17940,16.13,73442.0,-2.89,-5.39,-5.61,0,*55
1504803885.25,17941,16.13,73438.8,-2.87,-5.61,-5.97,0,*5E
1504803886.5,17942,16.13,73442.8,-2.89,-5.65,-6.39,0,*50
1504803887.75,17943,16.13,73444.8,-2.89,-5.97,-6.93,0,*5C
1504803889.02,17944,16.13,73440.3,-2.89,-6.23,-7.43,0,*5B
1504803890.26,17945,16.13,73440.5,-2.89,-6.69,-8.11,0,*5C
1504803891.49,17946,16.13,73444.8,-2.89,-7.11,-8.93,0,*5B
1504803892.74,17947,16.13,73446.0,-2.89,-7.83,-9.37,0,*5E
1504803893.94,17948,16.13,73446.0,-2.91,-8.59,-9.93,0,*5E
1504803895.19,17949,16.13,73448.3,-2.91,-9.11,-10.19,0,*68
1504803896.4,17950,16.13,73454.3,-2.91,-9.27,-10.93,0,*67
1504803897.6,17951,16.13,73442.0,-2.91,-9.79,-12.03,0,*66
1504803898.82,17952,16.13,73440.3,-2.91,-10.31,-12.97,0,*5C
1504803900.05,17953,16.13,73444.8,-2.91,-11.07,-13.73,0,*52
1504803901.32,17954,16.13,73456.8,-2.91,-11.63,-14.55,0,*54
1504803902.6,17955,16.13,73454.5,-2.89,-12.79,-16.13,0,*54
1504803903.84,17956,16.13,73450.8,-2.87,-13.93,-17.59,0,*53
1504803905.06,17957,16.13,73454.0,-2.89,-15.29,-19.03,0,*5A
1504803906.33,17958,16.13,73454.3,-2.89,-17.17,-20.39,0,*59
1504803907.59,17959,16.13,73454.0,-2.89,-18.79,-20.79,0,*5B
1504803908.81,17960,16.13,73452.3,-2.91,-19.75,-20.73,0,*5F
1504803910.08,17961,16.13,73462.3,-2.89,-20.35,-20.79,0,*53
1504803911.32,17962,16.13,73452.0,-2.95,-20.83,-21.17,0,*59
1504803912.56,17963,16.13,73456.5,-2.95,-21.53,-21.63,0,*57
1504803913.82,17964,16.13,73454.5,-2.95,-22.47,-21.83,0,*58
1504803915.05,17965,16.13,73448.3,-2.95,-23.23,-21.77,0,*51
1504803916.29,17966,16.13,73446.3,-2.91,-24.35,-21.97,0,*58
1504803917.52,17967,16.13,73456.3,-2.95,-25.23,-21.53,0,*53
1504803918.76,17968,16.13,73450.5,-2.97,-26.07,-20.73,0,*58
1504803919.99,17969,16.13,73452.0,-2.97,-26.61,-19.99,0,*57
1504803921.25,17970,16.13,73454.3,-2.97,-27.13,-19.27,0,*5E
1504803922.46,17971,16.13,73456.0,-2.99,-27.29,-18.17,0,*5A
1504803923.7,17972,16.13,73456.3,-2.99,-26.93,-16.55,0,*51
1504803924.95,17973,16.13,73448.0,-2.97,-26.13,-15.15,0,*51
1504803926.18,17974,16.13,73446.5,-2.99,-25.75,-13.93,0,*53
1504803927.44,17975,16.13,73442.8,-2.97,-24.87,-12.39,0,*51
1504803928.67,17976,16.13,73454.0,-2.97,-23.59,-11.11,0,*5F
1504803929.88,17977,16.13,73456.8,-2.99,-22.07,-10.01,0,*5A
1504803931.11,17978,16.13,73462.0,-2.99,-20.49,-9.05,0,*61
1504803932.31,17979,16.13,73462.3,-2.99,-18.79,-8.25,0,*6B
1504803933.54,17980,16.13,73450.8,-2.99,-17.31,-7.77,0,*66
1504803934.79,17981,16.13,73446.5,-2.99,-15.89,-7.65,0,*65
1504803936.02,17982,16.13,73444.5,-2.99,-14.79,-7.53,0,*6D
1504803937.27,17983,16.13,73448.0,-2.99,-13.79,-7.27,0,*68
1504803938.5,17984,16.13,73442.3,-2.99,-12.79,-6.89,0,*6B
1504803939.73,17985,16.13,73450.0,-2.99,-12.03,-6.63,0,*63
1504803940.95,17986,16.13,73448.8,-2.99,-11.23,-6.23,0,*65
1504803942.15,17987,16.13,73442.8,-2.99,-10.53,-6.09,0,*6A
1504803943.33,17988,16.13,73440.0,-2.99,-9.89,-6.05,0,*56
1504803944.53,17989,16.13,73454.8,-2.99,-9.27,-5.97,0,*5B
1504803945.76,17990,16.13,73450.3,-2.99,-8.75,-5.85,0,*56
1504803946.98,17991,16.13,73452.0,-2.99,-8.37,-5.73,0,*58
1504803948.23,17992,16.13,73458.3,-2.99,-7.95,-5.81,0,*51
1504803949.47,17993,16.13,73446.3,-2.99,-7.69,-5.73,0,*5E
1504803950.72,17994,16.13,73452.5,-2.99,-7.39,-5.81,0,*51
1504803951.94,17995,16.13,73460.5,-2.99,-7.19,-5.73,0,*5F
1504803953.17,17996,16.13,73464.8,-2.99,-7.11,-5.81,0,*59
1504803954.42,17997,16.13,73460.0,-2.99,-7.01,-5.85,0,*5D
1504803955.65,17998,16.13,73458.8,-2.99,-6.97,-5.97,0,*5F
1504803956.87,17999,16.13,73458.3,-2.99,-6.85,-5.85,0,*5E
1504803958.1,18000,16.13,73468.5,-2.99,-6.77,-5.73,0,*5C
1504803959.32,18001,16.13,73466.8,-2.99,-6.77,-5.73,0,*5D
1504803960.54,18002,16.13,73462.3,-2.99,-6.73,-5.73,0,*5A
1504803961.77,18003,16.13,73456.8,-2.99,-6.77,-5.61,0,*5C
1504803963.02,18004,16.13,73454.8,-3.01,-6.77,-5.65,0,*5F
1504803964.27,18005,16.13,73448.5,-2.99,-6.63,-5.61,0,*5F
1504803965.48,18006,16.13,73448.0,-2.99,-6.59,-5.55,0,*52
1504803966.68,18007,16.13,73444.8,-2.99,-6.47,-5.47,0,*5F
1504803967.88,18008,16.13,73444.5,-2.99,-6.51,-5.55,0,*54
1504803969.11,18009,16.13,73446.0,-2.99,-6.47,-5.61,0,*55
1504803970.34,18010,16.13,73450.8,-2.99,-6.51,-5.81,0,*54
1504803971.57,18011,16.13,73458.3,-2.99,-6.59,-5.85,0,*59
1504803972.82,18012,16.13,73460.8,-2.97,-6.59,-5.85,0,*54
1504803974.05,18013,16.13,73468.5,-2.99,-6.59,-5.81,0,*5F
1504803975.28,18014,16.13,73466.0,-2.99,-6.77,-5.81,0,*54
1504803976.51,18015,16.13,73460.0,-2.99,-6.77,-5.85,0,*51
1504803977.73,18016,16.13,73454.0,-2.99,-6.89,-5.85,0,*53
1504803978.96,18017,16.13,73448.8,-2.99,-6.85,-5.73,0,*57
1504803980.15,18018,16.13,73452.8,-2.99,-6.89,-5.47,0,*53
1504803981.35,18019,16.13,73454.0,-2.99,-6.85,-5.39,0,*57
1504803982.58,18020,16.13,73462.0,-2.99,-6.73,-5.19,0,*56
1504803983.8,18021,16.13,73462.3,-2.99,-6.73,-5.19,0,*57
1504803985.06,18022,16.13,73452.5,-2.97,-6.73,-5.27,0,*57
1504803986.29,18023,16.13,73452.8,-2.99,-6.59,-5.27,0,*50
1504803987.54,18024,16.13,73452.0,-2.97,-6.47,-5.27,0,*56
1504803988.79,18025,16.13,73444.5,-2.99,-6.23,-5.31,0,*5C
1504803990.01,18026,16.13,73454.5,-2.97,-6.09,-5.47,0,*58
1504803991.27,18027,16.13,73462.5,-2.97,-5.93,-5.55,0,*5A
1504803992.47,18028,16.13,73466.5,-2.99,-5.97,-6.05,0,*59
1504803993.68,18029,16.13,73462.0,-2.97,-6.05,-6.39,0,*51
1504803994.88,18030,16.13,73456.3,-2.99,-6.09,-6.85,0,*5C
1504803996.09,18031,16.13,73452.0,-2.99,-6.31,-7.15,0,*5E
1504803997.34,18032,16.13,73454.5,-2.97,-6.51,-7.57,0,*53
1504803998.59,18033,16.13,73454.3,-2.97,-6.77,-7.77,0,*54
1504803999.85,18034,16.13,73450.8,-2.97,-7.27,-7.95,0,*5B
1504804001.08,18035,16.13,73458.5,-2.99,-7.83,-8.11,0,*59
1504804002.35,18036,16.13,73460.0,-2.97,-7.91,-7.77,0,*58
1504804003.6,18037,16.13,73458.5,-2.99,-7.99,-7.43,0,*58
1504804004.87,18038,16.13,73456.0,-2.97,-7.99,-7.01,0,*5F
1504804006.09,18039,16.13,73456.0,-2.99,-7.95,-6.85,0,*51
1504804007.34,18040,16.13,73458.0,-2.97,-7.95,-6.59,0,*50
1504804008.58,18041,16.13,73456.3,-2.99,-7.69,-6.23,0,*51
1504804009.77,18042,16.13,73456.8,-2.99,-7.53,-6.05,0,*5F
1504804011.02,18043,16.13,73458.3,-2.99,-7.31,-5.93,0,*56
1504804012.25,18044,16.13,73440.0,-2.99,-7.19,-5.85,0,*5C
1504804013.53,18045,16.13,73438.5,-2.97,-6.97,-5.81,0,*50
1504804014.75,18046,16.13,73436.5,-2.99,-6.85,-5.81,0,*5E
1504804015.98,18047,16.13,73444.0,-2.99,-6.77,-5.73,0,*5F
1504804017.2,18048,16.13,73430.3,-2.99,-6.73,-5.81,0,*59
1504804018.44,18049,16.13,73450.0,-2.97,-6.39,-5.69,0,*5E
1504804019.65,18050,16.13,73448.8,-2.99,-6.39,-5.55,0,*57
1504804020.88,18051,16.13,73450.3,-2.97,-6.31,-5.55,0,*50
1504804022.13,18052,16.13,73448.3,-2.97,-6.19,-5.39,0,*53
1504804023.38,18053,16.13,73446.0,-2.97,-6.09,-5.19,0,*51
1504804024.63,18054,16.13,73460.3,-2.97,-6.05,-5.07,0,*55
1504804025.88,18055,16.13,73452.3,-2.97,-6.05,-5.03,0,*50
1504804027.13,18056,16.13,73456.5,-2.97,-6.05,-4.89,0,*50
1504804028.36,18057,16.13,73454.0,-2.95,-6.01,-4.89,0,*57
1504804029.61,18058,16.13,73448.0,-2.95,-5.77,-4.73,0,*5F
1504804030.88,18059,16.13,73458.3,-2.97,-5.69,-4.77,0,*57
1504804032.13,18060,16.13,73462.8,-2.97,-5.55,-4.77,0,*52
1504804033.35,18061,16.13,73462.5,-2.97,-5.39,-4.65,0,*5A
1504804034.61,18062,16.13,73462.0,-2.97,-5.15,-4.65,0,*57
1504804035.83,18063,16.13,73458.0,-2.95,-5.11,-4.57,0,*51
1504804037.08,18064,16.13,73450.5,-2.97,-5.03,-4.65,0,*56
1504804038.32,18065,16.13,73444.3,-2.97,-4.93,-4.65,0,*5F
1504804039.57,18066,16.13,73454.5,-2.97,-4.89,-4.53,0,*52
1504804040.79,18067,16.13,73446.8,-2.95,-4.73,-4.57,0,*50
1504804042.01,18068,16.13,73448.0,-2.95,-4.73,-4.49,0,*50
1504804043.21,18069,16.13,73452.3,-2.95,-4.61,-4.49,0,*52
1504804044.41,18070,16.13,73446.8,-2.95,-4.65,-4.49,0,*5E
1504804045.61,18071,16.13,73448.8,-2.95,-4.57,-4.49,0,*5E
1504804046.83,18072,16.13,73462.0,-2.97,-4.53,-4.49,0,*5B
1504804048.05,18073,16.13,73458.3,-2.97,-4.61,-4.49,0,*5B
1504804049.27,18074,16.13,73464.0,-2.97,-4.65,-4.61,0,*52
1504804050.51,18075,16.13,73460.5,-2.97,-4.69,-4.65,0,*5B
1504804051.76,18076,16.13,73462.0,-2.97,-4.65,-4.69,0,*58
1504804053.0,18077,16.13,73462.0,-2.97,-4.65,-4.69,0,*59
1504804054.25,18078,16.13,73452.0,-2.97,-4.61,-4.69,0,*52
1504804055.5,18079,16.13,73458.0,-2.97,-4.65,-4.81,0,*51
1504804056.76,18080,16.13,73454.8,-2.97,-4.69,-4.93,0,*58
1504804058.03,18081,16.13,73450.0,-2.97,-4.69,-5.07,0,*55
1504804059.31,18082,16.13,73444.5,-2.97,-4.81,-5.27,0,*52
1504804060.56,18083,16.13,73442.0,-2.99,-4.89,-5.27,0,*55
1504804061.81,18084,16.13,73446.0,-2.95,-4.89,-5.27,0,*5E
1504804063.06,18085,16.13,73450.3,-2.97,-5.07,-5.43,0,*58
1504804064.34,18086,16.13,73450.8,-2.97,-5.15,-5.69,0,*50
1504804065.58,18087,16.13,73454.3,-2.97,-5.31,-6.09,0,*52
1504804066.78,18088,16.13,73452.0,-2.95,-5.51,-6.43,0,*57
1504804068.01,18089,16.13,73458.8,-2.95,-5.65,-6.73,0,*52
1504804069.26,18090,16.13,73452.8,-2.95,-5.77,-6.97,0,*53
1504804070.48,18091,16.13,73454.5,-2.95,-6.13,-7.39,0,*56
1504804071.71,18092,16.13,73458.0,-2.95,-6.55,-7.77,0,*5D
1504804072.94,18093,16.13,73454.5,-2.95,-7.15,-8.07,0,*51
1504804074.18,18094,16.06,73448.8,-2.95,-7.61,-8.03,0,*51
1504804075.43,18095,16.13,73458.8,-2.91,-7.91,-7.65,0,*54
1504804076.63,18096,16.13,73460.5,-2.91,-8.29,-7.15,0,*5C
1504804077.83,18097,16.13,73458.3,-2.95,-8.45,-6.85,0,*5B
1504804079.03,18098,16.13,73454.0,-2.95,-8.59,-6.47,0,*57
1504804080.25,18099,16.13,73454.3,-2.95,-8.33,-6.19,0,*51
1504804081.48,18100,16.13,73450.0,-2.91,-7.95,-6.05,0,*5A
1504804082.73,18101,16.13,73444.8,-2.95,-7.65,-5.81,0,*5F
1504804083.96,18102,16.13,73446.8,-2.91,-7.23,-5.69,0,*5C
1504804085.23,18103,16.13,73458.8,-2.97,-6.97,-5.81,0,*53
1504804086.45,18104,16.13,73456.8,-2.95,-6.69,-5.77,0,*5E
1504804087.67,18105,16.13,73456.8,-2.95,-6.47,-5.69,0,*5C
1504804088.9,18106,16.06,73450.8,-2.91,-6.47,-5.77,0,*54
1504804090.14,18107,16.13,73464.0,-2.97,-6.47,-5.69,0,*5C
1504804091.4,18108,16.06,73456.8,-2.97,-6.35,-5.69,0,*56
1504804092.65,18109,16.06,73456.8,-2.97,-6.35,-5.61,0,*5F
1504804093.85,18110,16.13,73454.5,-2.95,-6.31,-5.43,0,*51
1504804095.08,18111,16.13,73448.0,-2.95,-6.19,-5.39,0,*57
1504804096.28,18112,16.13,73446.0,-2.95,-6.13,-5.35,0,*52
1504804097.47,18113,16.13,73450.5,-2.95,-6.05,-5.35,0,*54
1504804098.7,18114,16.06,73448.8,-2.95,-5.93,-5.39,0,*53
1504804099.93,18115,16.13,73452.0,-2.95,-5.81,-5.39,0,*51
1504804101.14,18116,16.13,73448.5,-2.97,-6.05,-5.43,0,*52
1504804102.36,18117,16.13,73448.3,-2.97,-6.05,-5.47,0,*57
1504804103.57,18118,16.13,73454.5,-2.95,-6.13,-5.51,0,*5A
1504804104.78,18119,16.13,73456.3,-2.95,-6.27,-5.43,0,*5F
1504804106.0,18120,16.13,73454.8,-2.95,-6.27,-5.35,0,*54
1504804107.26,18121,16.13,73458.0,-2.97,-6.35,-5.27,0,*57
1504804108.51,18122,16.13,73446.8,-2.97,-6.47,-5.19,0,*5C
1504804109.76,18123,16.06,73444.0,-2.97,-6.47,-5.15,0,*51